Regional Weather Roundup
Issued by NWS Newport/Morehead, NC

Current Version | Previous Version | Graphics & Text | Print | Product List | Glossary Off
Versions: 1 2 3 4 5 6 7 8 9 10 11 12 13 14 15 16 17 18 19 20 21 22 23 24 25 26 27 28 29 30 31 32 33 34 35 36 37 38 39 40 41 42 43 44 45 46 47 48 49 50

000
ASUS42 KMHX 211314
RWRMHX
WEATHER ROUNDUP FOR EASTERN NORTH CAROLINA
NATIONAL WEATHER SERVICE NEWPORT/MOREHEAD CITY NC
900 AM EDT MON AUG 21 2017

NOTE: "FAIR" INDICATES FEW OR NO CLOUDS BELOW 12,000 FEET
WITH NO SIGNIFICANT WEATHER AND/OR OBSTRUCTIONS TO VISIBILITY

NCZ015>017-031-032-045>047-102-103-211400-
NORTH COAST

CITY           SKY/WX    TMP DP  RH WIND       PRES   REMARKS
EDENTON        SUNNY     80  79  96 CALM      30.23S
ELIZABETH CITY PTSUNNY   81  78  91 E5        30.23S
KITTY HAWK     PTSUNNY   78  78 100 CALM      30.21S
MANTEO         PTSUNNY   79  76  90 E7        30.23R

$$

NCZ045>047-081-094-103-104-211400-
CENTRAL COAST

CITY           SKY/WX    TMP DP  RH WIND       PRES   REMARKS
FRISCO         CLOUDY    82  80  94 E5        30.21R

$$

NCZ095-097-098-100-101-211400-
SOUTHERN COAST

CITY           SKY/WX    TMP DP  RH WIND       PRES   REMARKS
BEAUFORT       MOSUNNY   82  79  90 NE9       30.20S
CEDAR ISLAND   NOT AVBL
JACKSONVILLE   CLOUDY    80  79  96 N5        30.20F FOG
PINEY ISLAND   MOSUNNY  N/A N/A N/A NE8       30.21R
WILMINGTON     CLOUDY    81  78  91 NE5       30.19S


$$

NCZ011>013-027>030-043-044-078>080-089-090>093-098-211400-
COASTAL PLAIN

CITY           SKY/WX    TMP DP  RH WIND       PRES   REMARKS
AHOSKIE        DRZL/FOG  74  74  99 CALM      30.23S VSB<1/4
CLINTON        CLOUDY    76  76 100 CALM      30.22R
ELIZABETHTOWN  NOT AVBL
GOLDSBORO      FOG       77  77 100 E6        30.22R VSB 1/4
GREENVILLE     FOG       73  73 100 CALM      30.23F VSB 1/2
HAVELOCK       MOSUNNY   82  78  88 NE7       30.21F
KENANSVILLE    CLOUDY    75  75 100 CALM      30.22S FOG
KINSTON        NOT AVBL
NEW BERN       CLOUDY    78  78 100 NE6       30.22S FOG
RICHLANDS      CLOUDY    75  75 100 NE6       30.21S FOG
ROCKY MOUNT    CLOUDY    76  76 100 N3        30.23R FOG
WASHINGTON     CLOUDY    75  75  98 NE5       30.22F FOG
WHITEVILLE     SUNNY     79  77  95 NE5       30.19S

$$

AMZ130-135-150-152-154-156-158-170-250-252-270-ANZ085-086-088-633-658-670-211400-
MARINE OBSERVATIONS

STATION/POSITION TIME  TEMP    WIND        PRES    WAVE   SWELL
                       AIR SEA DIR/SP/G            HT/PER HT/PER
                 (UTC) (F)     (DEG/KT/KT) (MB)    (FT/S) (FT/S)
CHESAPEAKE LIGHT NOT AVBL
64 E VA BEACH    1250   79 79  100/ 10/ 10 1023.7    2/ 8   2/ 8
DUCK             1242   81 78  100/  7/  7 1023.1
2 E DUCK         1300      79                N/A     2/ 9
OREGON INLET     1242   80 80   60/  4/  5 1023.1
13E OREGON INLT  1248      80                N/A     2/ 9   2/ 9
HATTERAS CG      1242   80 79   70/  6/  7 1023.0
DIAMOND BUOY     1250   83 85   40/ 10/ 12 1022.7    2/ 9   2/ 9
CAPE LOOKOUT     1300   82      50/ 10/ 11 1022.2
BEAUFORT LAB     1242   81 80   60/  6/  9 1022.2
30 SE NEW RVR IN 1208   81 84   90/  6/  8 1022.4
30 SE NEW RVR IN 1243      84                N/A     2/ 8
27 SE WRIGHTSVLE 1208   83 84   50/  2/  4 1022.1
5 SE WRIGHTSVLE  1208   82 83   10/  6/  8 1021.8
225 S CAPE HAT   1250   83 84  140/  6/  6 1022.4    3/10   3/10
41 SE CHARLESTON 1300   83 85   90/  6/  8 1021.1

$$




USA.gov is the U.S. government's official web portal to all federal, state and local government web resources and services.